Campo, CA

7:48 PM PDT on May 23, 2018 (GMT -0700)
Campo

Weather History for KCZZ - December, 2012

Change the Weather History Date:

Friday, December 7, 2012

  Actual Average Record
Temperature  
Mean Temperature 55 °F 48 °F  
Max Temperature 73 °F 63 °F 82 °F (1970)
Min Temperature 37 °F 33 °F 14 °F (1978)
Degree Days  
Heating Degree Days 10 17  
Month to date heating degree days 72 116  
Since 1 July heating degree days 501 686  
Cooling Degree Days 0 0  
Month to date cooling degree days 0 0  
Year to date cooling degree days 942 841  
Growing Degree Days 6 (Base 50)    
Moisture  
Dew Point 33 °F    
Average Humidity 51    
Maximum Humidity 85    
Minimum Humidity 17    
Precipitation  
Precipitation 0.00 in 0.06 in 1.95 in (2009)
Month to date precipitation 0.03 0.43  
Year to date precipitation 8.27 13.89  
Since 1 July precipitation 2.22  
Snow  
Snow 0.00 in - - ()
Month to date snowfall 0.0  
Year to date snowfall 0.0  
Snow Depth 0.00 in    
Sea Level Pressure  
Sea Level Pressure 29.89 in    
Wind  
Wind Speed 8 mph (ENE)    
Max Wind Speed 21 mph    
Max Gust Speed 24 mph    
T = Trace of Precipitation, MM = Missing Value Source: NWS Daily Summary

Daily Weather History Graph

Daily Weather History Graph

Search for Another Location

Airport or City:

Astronomy

Dec. 07, 2012 Rise Set
Actual Time 6:35 AM PST 4:39 PM PST
Civil Twilight 6:08 AM PST 5:07 PM PST
Nautical Twilight 5:37 AM PST 5:37 PM PST
Astronomical Twilight 5:07 AM PST 6:07 PM PST
Moon 12:17 AM PST (12/7) 12:23 PM PST (12/7)
Length of Visible Light 10h 58m
Length of Day
10h 04m
Last Quarter, 37% of the Moon is Illuminated
Dec 7
Last Quarter
Dec 13
New
Dec 19
First Quarter
Dec 28
Full
Jan 4
Last Quarter

Hourly Weather History & Observations

Time (PST) Temp. Windchill Dew Point Humidity Pressure Visibility Wind Dir Wind Speed Gust Speed Precip Events Conditions
12:52 AM 39.0 °F 35.7 °F 35.1 °F 86% 29.87 in - NE 4.6 mph - N/A   Unknown
1:52 AM 39.0 °F 35.7 °F 35.1 °F 86% 29.87 in - NE 4.6 mph - N/A   Unknown
2:52 AM 41.0 °F 37.1 °F 36.0 °F 82% 29.87 in - NE 5.8 mph - N/A   Unknown
3:52 AM 39.9 °F 36.7 °F 35.1 °F 83% 29.86 in - NE 4.6 mph - N/A   Unknown
4:52 AM 39.9 °F 37.8 °F 35.1 °F 83% 29.87 in - NE 3.5 mph - N/A   Unknown
5:52 AM 43.0 °F - 36.0 °F 76% 29.88 in - Calm Calm - N/A   Unknown
6:52 AM 41.0 °F 37.1 °F 35.1 °F 79% 29.91 in - NE 5.8 mph - N/A   Unknown
7:52 AM 46.9 °F - 39.0 °F 74% 29.92 in - Calm Calm - N/A   Unknown
8:52 AM 57.9 °F - 44.1 °F 60% 29.91 in - Calm Calm - N/A   Unknown
9:52 AM 69.1 °F - 35.1 °F 29% 29.90 in - ENE 19.6 mph 23.0 mph N/A   Unknown
10:52 AM 71.1 °F - 33.1 °F 25% 29.89 in - ENE 17.3 mph 21.9 mph N/A   Unknown
11:52 AM 72.0 °F - 30.9 °F 22% 29.87 in - ENE 17.3 mph - N/A   Unknown
12:52 PM 71.1 °F - 30.0 °F 22% 29.86 in - East 9.2 mph - N/A   Unknown
1:52 PM 73.0 °F - 27.0 °F 18% 29.84 in - East 10.4 mph - N/A   Unknown
2:52 PM 71.1 °F - 26.1 °F 19% 29.84 in - ENE 11.5 mph - N/A   Unknown
3:52 PM 69.1 °F - 28.0 °F 22% 29.86 in - East 8.1 mph - N/A   Unknown
4:52 PM 64.9 °F - 28.9 °F 26% 29.88 in - Calm Calm - N/A   Unknown
5:52 PM 54.0 °F - 30.0 °F 40% 29.90 in - NE 4.6 mph - N/A   Unknown
6:52 PM 48.9 °F - 28.9 °F 46% 29.92 in - NNE 4.6 mph - N/A   Unknown
7:52 PM 48.0 °F - 30.0 °F 50% 29.92 in - ENE 5.8 mph - N/A   Unknown
8:52 PM 45.0 °F 41.8 °F 30.0 °F 56% 29.92 in - NE 5.8 mph - N/A   Unknown
9:52 PM 42.1 °F 37.7 °F 30.0 °F 62% 29.91 in - ENE 6.9 mph - N/A   Unknown
10:52 PM 44.1 °F - 32.0 °F 63% 29.90 in - Calm Calm - N/A   Unknown
11:52 PM 41.0 °F 38.0 °F 30.9 °F 67% 29.90 in - NE 4.6 mph - N/A   Unknown